Temp
30 30 29 29 29 28 28 28 28 28 27 27 27 27 26 26 25 25 24 24 24 24 24 24 23 23 23 23 23 23 23 22 22 22 22 22 22 22 22 22 23 23 23 22 22 22 23 22 22 22 22 22 22 22 21 21 21 21 21 21 21 22 21 21 21 21 21 21 22 22 22 22 22 22 22 21 21 20 20 20 20 19 19 19 19
30 30 29 29 29 29 28 28 28 28 27 27 27 26 26 26 25 24 24 24 25 25 24 24 23 23 23 22 22 23 22 22 22 22 22 22 22 22 22 22 22 22 22 22 22 22 22 22 22 22 22 22 22 22 21 21 22 22 22 22 22 22 21 21 21 21 21 21 21 22 22 22 22 22 22 22 21 21 21 20 20 20 20 20 20
31 30 29 29 29 29 28 28 28 28 27 27 27 26 25 25 25 25 26 26 25 25 24 24 23 23 23 22 22 22 22 22 22 22 22 22 22 22 22 22 22 22 22 22 22 22 22 22 22 22 22 22 22 21 21 22 22 22 22 22 22 22 21 21 21 21 21 21 21 21 22 22 22 22 22 21 21 21 21 21 20 20 20 20 20
31 30 30 29 29 28 28 28 28 28 28 27 26 26 25 25 25 26 26 27 26 25 24 24 23 23 23 22 22 22 22 21 21 21 21 21 22 22 22 22 22 22 22 22 22 22 22 22 22 22 22 22 22 22 22 22 22 21 21 21 21 21 21 20 19 19 20 20 21 21 21 21 21 21 21 21 21 21 21 21 21 20 20 20 20
32 31 30 29 29 28 28 28 28 28 28 28 27 25 24 25 26 26 27 27 26 25 24 24 23 23 23 22 21 21 21 21 21 21 21 21 21 22 22 22 22 22 22 22 22 22 22 22 22 23 22 22 22 23 23 23 22 22 21 21 20 21 21 20 19 19 19 20 20 20 20 21 21 20 20 20 20 20 20 21 21 20 20 20 20
33 32 31 30 29 28 28 28 28 28 28 28 27 25 24 25 26 26 27 28 26 25 25 24 23 23 22 22 22 21 21 21 21 21 21 21 21 21 22 22 22 22 22 22 22 22 22 22 22 22 22 22 22 23 23 23 22 22 21 21 20 20 20 20 20 20 19 19 19 19 20 20 20 20 20 20 20 20 20 20 20 20 20 20 20
33 32 31 30 29 28 28 28 28 28 28 28 26 25 25 25 26 27 27 27 26 25 25 24 24 23 23 23 22 21 21 21 20 21 21 21 21 21 21 22 22 22 22 22 22 22 22 22 22 22 22 22 22 22 22 22 22 21 21 20 20 20 20 20 20 20 20 20 20 20 20 20 20 20 20 19 19 20 20 20 20 20 20 20 20
33 32 31 30 29 28 29 28 28 28 27 27 25 25 25 26 27 28 28 27 26 26 26 25 24 23 23 22 22 21 21 21 20 21 21 21 21 21 21 21 22 22 21 21 22 22 22 22 22 22 22 22 22 22 22 22 21 21 21 20 20 20 21 21 21 21 21 21 20 20 20 20 20 20 20 19 19 19 20 20 20 20 20 20 20
33 32 31 30 29 28 28 28 27 27 26 26 25 25 26 27 27 28 28 27 27 27 27 26 24 23 22 22 21 21 21 21 21 21 21 21 21 21 21 21 21 21 21 21 21 21 22 22 22 22 22 22 22 21 21 21 21 20 20 20 20 20 20 21 21 21 21 21 20 20 20 20 20 20 20 20 20 20 20 20 20 20 20 19 19
33 32 31 30 29 28 28 27 26 25 25 25 25 25 26 27 27 28 28 27 26 26 26 25 24 22 22 21 21 21 21 21 21 21 21 21 21 21 21 21 21 21 21 21 21 21 22 22 21 21 21 21 21 21 21 21 21 20 20 20 20 20 20 20 20 20 20 20 20 20 20 20 20 20 20 20 20 20 20 20 20 19 19 19 19
32 31 31 30 29 27 26 25 25 25 24 25 25 25 26 26 27 28 27 26 25 25 24 24 24 23 22 21 21 21 21 21 21 21 21 21 21 21 21 21 21 21 21 21 21 21 21 21 21 21 21 21 21 21 21 20 20 20 20 19 19 19 19 19 19 20 20 20 20 20 20 20 20 20 20 20 20 20 20 19 19 19 19 19 19
32 31 30 29 27 25 25 24 24 24 24 25 25 25 26 26 26 26 25 24 24 24 24 24 23 23 22 22 22 22 22 21 21 21 21 21 21 21 21 21 21 21 21 21 21 21 21 21 20 20 20 20 20 20 20 20 19 19 19 19 19 19 19 19 19 19 19 19 19 19 19 20 20 19 19 19 19 19 19 18 18 18 18 18 18
32 29 28 27 26 25 25 25 24 24 24 25 25 25 25 25 25 25 24 24 24 23 23 23 23 22 22 22 22 22 22 22 21 21 21 21 21 21 21 20 20 20 20 20 20 20 20 20 20 20 19 19 19 19 19 19 19 19 19 19 19 19 19 19 19 19 18 18 18 18 19 19 19 19 18 18 17 18 18 18 18 18 18 18 18
31 28 26 26 26 25 25 25 25 24 24 24 24 24 24 25 24 24 24 24 23 23 23 22 22 22 22 22 22 22 22 22 21 21 21 21 21 21 20 20 20 20 20 20 20 20 19 19 20 19 19 18 19 19 19 18 18 18 18 18 19 19 18 19 19 19 18 18 17 18 18 18 18 17 17 17 16 17 17 16 17 16 16 17 17
29 27 26 26 25 25 25 25 24 24 24 24 24 24 24 24 24 24 24 24 23 23 23 22 22 22 22 22 22 22 23 22 22 21 21 21 21 20 20 19 19 20 20 20 20 19 19 19 19 19 18 18 18 18 18 18 17 17 17 17 18 18 18 18 18 18 18 18 17 17 17 17 17 17 16 16 16 15 15 15 16 16 16 16 16
30 27 26 26 25 25 25 25 24 24 24 24 24 24 24 23 23 23 24 24 24 23 23 23 22 22 22 22 22 22 22 22 22 21 21 21 21 20 20 19 19 20 20 20 19 19 19 19 18 18 18 18 18 18 18 17 17 17 17 16 17 17 18 18 18 18 18 18 18 17 18 17 17 16 16 16 15 15 15 15 15 16 16 16 17
30 27 26 26 25 25 25 24 24 24 24 24 24 24 24 23 23 23 24 24 24 24 24 23 23 22 22 21 22 22 22 22 21 21 21 21 20 20 20 19 20 20 20 19 19 19 19 19 19 18 18 18 18 18 18 17 17 17 17 16 17 17 18 18 18 19 18 18 18 18 17 17 16 16 16 15 15 15 14 14 15 16 17 17 17
29 28 27 26 26 25 25 24 24 24 24 24 24 24 24 24 24 24 24 24 25 25 24 24 23 22 22 22 22 22 22 22 21 21 21 21 20 20 20 20 20 20 19 19 19 19 19 19 19 18 17 17 17 18 17 17 17 17 16 16 17 18 18 19 19 19 18 18 17 17 16 16 16 16 15 15 15 15 15 14 15 16 16 17 17
28 28 27 26 25 25 24 24 24 23 24 24 24 24 24 24 24 24 24 24 25 25 24 24 23 23 23 23 22 22 22 21 20 20 20 20 21 20 20 20 20 20 19 19 19 19 18 17 18 18 17 17 17 17 17 17 17 16 16 17 18 18 18 18 18 18 17 17 17 16 16 16 15 15 16 16 16 16 16 15 15 16 16 17 18
28 27 26 26 25 25 24 24 24 23 23 23 24 24 24 24 24 24 24 24 24 24 24 23 23 23 23 22 22 21 21 21 20 20 20 20 20 20 20 20 20 20 20 19 18 18 17 17 17 18 17 17 17 17 17 17 16 16 16 17 18 18 17 17 16 16 15 16 16 15 15 15 15 16 16 17 17 18 18 17 16 17 17 18 18
27 26 26 26 25 25 25 25 24 23 23 23 24 24 25 25 24 24 24 25 24 24 23 23 23 24 23 22 22 21 21 21 20 20 20 20 20 20 20 20 20 20 20 19 18 18 18 17 17 17 17 17 16 17 16 16 16 16 15 16 16 16 16 15 15 14 15 15 16 16 16 16 16 16 17 18 18 19 18 18 17 17 18 17 17
26 26 25 25 25 25 25 24 24 23 23 23 24 25 25 24 24 24 24 25 24 24 23 24 24 24 23 23 23 22 22 21 21 21 20 21 21 20 20 20 20 20 19 19 18 18 18 17 17 17 17 17 16 16 16 16 16 15 15 15 15 15 14 14 14 14 15 15 16 16 16 16 16 17 18 18 18 18 17 17 17 16 16 16 16
26 25 25 25 25 25 25 24 23 23 23 23 24 24 24 24 23 23 24 24 24 23 23 24 24 24 23 23 23 22 21 21 21 21 21 21 20 20 19 19 19 19 19 19 18 18 18 18 17 17 17 17 16 16 16 15 15 14 14 14 14 14 14 13 13 14 15 16 16 15 15 15 16 17 17 17 17 16 16 16 15 15 15 15 15
25 25 25 24 25 25 24 23 23 23 23 23 23 23 23 23 23 23 24 24 23 23 23 23 23 24 24 23 23 23 21 20 20 21 20 20 19 19 19 19 19 19 19 19 18 18 18 18 17 17 17 16 16 15 15 14 14 14 13 13 13 13 13 13 14 15 16 16 16 16 16 16 16 17 16 16 16 15 15 14 14 14 15 15 15
25 24 24 24 24 24 23 23 23 23 23 23 23 23 23 23 23 23 23 24 23 23 23 23 23 24 24 24 24 23 21 20 19 19 19 19 19 18 18 19 19 19 19 19 18 18 18 18 17 17 16 15 15 14 14 14 14 13 13 13 13 13 13 14 15 16 16 16 16 16 16 16 16 16 16 15 15 14 14 14 14 15 15 15 15
25 24 24 23 23 23 23 23 23 23 23 23 22 22 23 23 23 23 24 24 23 23 23 23 23 24 24 24 24 23 22 21 19 18 18 18 18 18 18 19 19 18 18 18 18 18 18 17 17 16 15 15 15 14 14 14 14 14 14 14 13 13 14 15 16 15 15 15 15 16 16 16 16 15 15 14 14 14 15 15 15 15 15 15 15
24 24 24 24 23 23 23 23 23 23 23 23 23 23 23 24 23 23 24 24 24 23 23 24 24 24 24 24 24 24 22 21 20 19 18 18 18 18 18 18 18 18 18 18 18 18 17 16 16 15 15 15 15 14 14 14 14 14 14 14 14 15 16 16 15 14 14 15 15 15 15 15 15 14 14 15 15 15 15 15 15 15 15 15 15
24 24 24 24 24 23 23 23 23 23 23 24 24 24 24 24 24 24 24 24 24 24 24 24 24 24 25 24 24 24 22 22 21 21 20 19 18 18 18 17 17 18 18 18 17 16 16 15 15 14 14 14 14 14 14 14 15 15 15 15 16 16 16 16 15 14 14 14 14 15 14 14 14 15 15 15 15 15 15 15 15 15 15 15 15
24 24 24 24 23 23 23 23 23 23 24 24 23 23 23 23 24 23 23 23 23 23 24 24 24 24 24 24 24 23 22 22 22 21 21 20 19 18 18 18 18 18 19 18 17 16 16 16 16 15 15 16 16 16 16 16 16 17 17 17 17 17 17 16 16 15 15 15 15 14 14 14 15 15 15 15 15 15 15 15 15 15 15 15 16
25 24 24 24 23 23 23 23 23 24 24 23 22 21 21 22 22 22 22 22 22 22 22 22 22 23 23 23 23 23 22 22 22 21 20 20 19 19 19 19 19 19 19 18 18 18 18 18 18 18 18 18 18 18 18 18 18 18 18 18 17 17 17 17 17 16 15 15 15 14 15 15 15 15 15 15 15 15 15 15 15 15 15 16 16
25 25 24 24 23 23 24 24 24 24 24 23 22 21 21 21 21 21 21 21 21 21 21 21 21 21 21 21 22 22 22 22 22 21 20 20 19 19 19 19 20 19 18 18 18 19 19 19 19 19 19 19 20 20 19 19 19 18 18 18 18 18 17 17 16 15 15 15 14 15 15 15 15 15 15 15 15 15 15 15 16 16 16 16 16
25 25 24 24 23 23 24 24 23 24 23 23 23 22 22 21 20 19 20 20 20 20 20 20 20 20 20 21 21 21 20 20 20 20 20 19 19 19 19 19 19 18 18 17 17 18 19 19 19 19 19 19 20 19 19 19 18 18 19 19 18 17 17 16 15 14 14 14 14 15 15 15 15 15 15 15 15 15 15 16 16 16 16 16 16
25 24 24 23 23 24 24 24 24 24 23 23 22 22 22 22 21 19 18 18 19 19 19 19 20 20 20 20 20 20 20 20 19 19 19 19 19 19 18 18 17 17 17 17 17 18 19 18 18 19 20 20 19 19 18 18 18 18 18 18 17 17 16 15 14 14 14 14 14 15 15 15 15 15 15 15 15 15 16 16 16 16 16 16 16
25 25 24 24 24 24 24 24 24 23 23 23 23 23 23 23 22 19 18 17 17 17 18 19 20 20 20 20 19 19 19 19 18 18 18 18 18 18 17 17 16 16 16 16 17 17 17 17 17 19 19 19 19 18 18 18 18 18 18 17 16 16 16 15 14 14 15 15 15 15 15 15 15 15 15 15 15 15 16 16 16 16 16 16 16
25 25 25 25 25 24 24 24 24 23 23 23 23 23 24 24 23 21 21 20 20 19 18 18 18 19 19 19 19 18 18 18 18 18 18 17 17 17 17 16 16 16 15 15 16 16 17 17 18 18 19 18 17 17 17 17 17 18 18 17 16 16 15 15 15 15 15 15 15 15 15 15 15 15 15 15 15 15 16 16 16 16 16 16 16
24 24 24 24 25 24 24 24 24 24 23 23 24 24 24 24 24 23 23 23 22 21 18 16 16 17 17 17 17 17 17 17 17 17 17 17 17 17 17 17 17 16 16 16 16 16 17 18 18 18 17 17 17 16 16 17 17 17 17 17 16 15 15 15 15 15 14 14 14 15 15 15 15 15 15 15 15 15 16 16 16 16 16 16 16
24 24 24 25 25 25 25 24 24 23 23 24 24 24 24 24 24 24 24 24 23 21 18 15 15 15 15 16 16 16 16 16 16 15 15 15 16 16 17 17 18 17 17 17 17 17 17 17 17 17 16 16 16 16 16 17 17 16 16 16 15 14 14 14 14 13 13 14 14 14 15 15 15 15 15 15 15 15 15 15 15 15 16 16 16
24 25 25 24 24 24 23 23 23 23 23 24 24 24 24 24 24 24 24 24 22 21 18 17 16 16 15 14 15 15 15 14 14 14 14 14 15 16 16 17 18 18 18 18 18 17 17 17 17 16 16 16 16 16 17 17 16 16 16 16 15 14 13 13 13 13 13 13 14 15 15 15 15 15 15 15 15 15 15 15 15 15 16 16 16
23 23 23 23 23 23 23 23 23 23 24 24 24 23 24 24 24 24 24 23 22 21 20 19 19 18 16 14 14 14 14 13 14 14 14 14 15 15 16 17 18 18 18 18 17 17 17 16 16 16 16 16 16 16 16 16 15 15 16 15 14 14 14 14 14 14 14 14 15 15 15 15 15 15 15 15 15 15 15 15 15 15 16 16 16
23 22 23 23 23 24 23 23 23 23 23 23 23 23 23 23 24 24 24 23 22 22 21 21 20 19 16 15 15 15 15 15 16 16 15 15 15 16 17 18 18 18 18 17 17 17 17 16 16 16 16 16 16 16 15 15 16 16 15 14 14 14 14 15 14 15 15 14 14 14 14 14 14 14 14 15 15 14 14 15 15 15 15 16 16
23 22 22 23 23 23 23 23 23 23 23 23 23 23 23 24 24 24 23 23 23 23 23 22 20 18 17 17 17 17 17 18 18 18 17 17 17 17 17 17 18 18 17 17 17 17 17 17 16 16 16 16 16 15 15 16 16 15 14 14 14 14 14 15 15 15 14 14 14 14 14 14 14 14 14 14 14 14 15 15 15 15 15 16 16
22 22 22 22 23 23 23 23 23 23 23 23 23 23 23 23 23 23 23 23 23 23 23 21 18 17 17 18 17 17 18 19 19 19 18 18 18 17 17 17 17 17 17 17 17 17 16 16 16 16 16 16 16 16 16 15 14 14 14 14 14 14 14 15 15 14 14 14 14 14 14 13 13 13 14 14 14 15 15 15 15 15 15 15 16
22 22 22 23 23 23 23 22 22 22 23 23 23 22 22 22 22 22 22 22 22 22 22 20 18 17 17 17 16 16 17 18 19 19 18 18 18 17 17 17 17 17 17 16 16 16 16 16 16 16 16 16 16 16 15 14 14 13 14 14 14 14 14 14 14 14 14 14 14 13 13 13 13 14 14 14 14 14 14 15 15 15 15 15 15
23 23 22 22 22 22 22 22 22 22 22 21 21 21 21 21 21 21 21 21 21 21 21 20 18 17 16 16 16 16 16 17 18 19 18 18 18 18 18 17 17 17 17 16 16 16 16 16 16 16 16 16 16 15 14 13 13 13 13 13 14 14 14 14 14 14 13 13 13 13 13 13 13 14 14 14 14 14 14 15 15 15 15 15 15
22 22 22 22 22 22 22 22 22 21 20 20 20 20 20 21 21 21 21 21 21 20 20 20 19 17 17 16 16 16 16 17 18 18 18 18 18 18 18 17 17 16 16 16 16 16 16 16 16 16 15 15 14 13 12 12 12 12 13 13 13 13 13 13 13 13 12 12 12 12 13 13 13 13 14 14 14 14 14 14 14 15 15 15 15
22 22 22 22 22 22 21 21 21 20 20 21 21 21 20 20 21 20 20 20 20 20 20 20 19 19 18 18 17 17 17 18 18 18 18 18 18 18 17 17 17 16 16 16 16 16 15 15 15 15 14 14 13 13 12 12 12 12 12 12 12 12 12 12 12 11 11 11 11 12 12 12 13 13 13 13 13 14 14 14 14 14 14 15 15
21 22 22 21 21 21 21 20 20 20 21 21 21 21 21 20 20 20 20 20 19 19 19 20 20 19 19 18 18 18 18 18 18 18 18 18 18 17 17 17 17 16 16 16 16 16 15 15 14 14 14 13 13 12 12 12 12 12 12 12 11 11 11 11 11 10 10 10 11 11 11 12 12 13 13 13 13 13 14 14 14 14 14 15 15
21 21 21 21 21 21 20 20 20 20 21 21 21 21 21 20 20 20 20 19 19 19 19 19 19 19 19 19 19 19 19 18 18 18 18 18 18 17 17 17 17 17 17 17 16 16 15 15 14 14 13 13 12 12 12 12 12 12 12 11 11 11 10 10 10 9 9 9 9 10 10 11 12 12 13 13 13 13 13 14 14 14 14 14 15
21 21 21 21 21 20 20 20 20 20 20 21 20 20 20 20 20 20 20 20 20 20 20 20 20 20 19 19 19 19 19 19 19 18 18 18 18 18 17 16 16 17 17 18 17 15 15 14 14 13 13 12 12 12 12 11 12 12 11 11 10 10 10 9 9 9 9 9 9 9 10 11 12 12 12 13 13 13 13 13 13 13 14 14 15
21 21 21 21 21 21 21 20 20 20 20 20 20 20 20 20 20 20 20 20 20 20 20 20 20 20 20 20 20 20 19 19 19 19 18 18 18 17 17 16 16 16 16 17 16 15 14 14 13 13 13 12 12 12 12 12 12 11 11 10 10 9 9 9 9 9 9 8 8 9 10 11 11 12 12 12 13 13 13 13 13 13 14 14 15
21 21 21 21 21 21 21 21 21 20 20 20 20 20 20 20 21 21 21 21 21 21 20 20 20 20 20 20 20 20 19 19 19 19 18 18 18 17 16 16 16 16 16 15 15 15 15 14 13 13 12 12 12 12 12 12 11 11 10 10 9 9 9 9 9 9 8 8 8 8 9 10 11 12 12 12 12 12 12 12 13 13 14 15 15
Height
754 758 761 764 768 770 774 777 781 785 788 793 796 799 801 804 806 807 807 809 809 808 807 806 806 808 810 812 814 816 818 819 820 822 824 826 827 828 828 828 828 828 828 829 829 830 830 830 830 830 830 830 830 830 830 830 830 830 830 830 829 829 829 828 827 826 825 825 825 825 824 824 823 822 822 821 821 821 820 820 819 818 818 816 815
751 754 757 761 764 767 771 774 778 782 786 790 793 795 797 799 800 801 802 802 800 798 796 795 797 799 802 804 807 811 814 816 818 819 821 823 825 826 827 827 827 827 827 827 828 828 828 828 828 828 828 828 828 829 829 829 828 827 828 828 828 827 828 827 826 825 824 823 823 822 821 821 820 820 819 819 818 818 817 817 816 816 815 814 812
747 751 755 758 761 764 768 771 775 778 781 784 787 789 791 792 793 794 794 793 790 787 787 789 792 794 797 800 802 807 811 814 816 817 818 821 822 823 824 825 825 825 825 825 825 826 826 826 826 826 826 826 826 826 827 827 826 826 826 826 826 826 827 827 826 825 824 822 821 820 819 819 818 817 817 816 816 815 814 813 813 812 812 811 809
743 748 752 756 760 762 765 767 770 773 775 777 779 781 782 783 784 785 785 783 779 779 781 785 787 790 793 796 799 803 808 811 813 815 816 818 819 820 821 822 822 822 822 822 823 823 824 824 824 824 824 824 824 824 824 825 825 825 825 825 825 825 825 825 826 826 825 822 820 818 817 817 816 815 815 814 814 813 812 811 810 809 808 807 806
737 742 746 752 756 759 761 763 765 767 769 771 773 775 775 776 777 777 775 773 772 774 778 781 784 787 790 793 796 799 803 807 810 813 815 816 816 817 819 820 820 820 820 820 821 821 821 822 822 822 822 822 822 822 822 823 823 823 824 824 824 824 823 823 823 824 823 821 819 817 816 815 814 813 813 812 811 810 810 808 807 806 805 804 803
730 735 740 745 750 754 757 758 758 760 763 765 768 770 770 770 771 769 767 767 769 772 776 779 781 784 787 791 794 797 801 803 806 810 814 815 815 815 816 818 818 818 818 818 819 819 819 820 821 821 821 821 821 821 821 821 821 822 822 823 822 822 821 821 821 821 820 819 817 815 814 813 812 811 810 810 809 808 807 806 804 803 802 800 800
725 730 735 739 743 746 750 752 752 754 757 760 762 763 764 764 763 762 762 764 767 770 773 776 779 781 785 788 791 794 798 800 802 807 811 813 813 812 813 815 816 816 815 816 817 817 818 818 819 819 819 819 820 820 820 820 819 820 820 821 821 820 820 820 819 819 817 816 814 813 812 811 810 808 807 807 807 806 805 803 801 799 798 797 796
720 726 731 735 737 739 743 746 748 749 753 755 756 757 757 758 757 757 759 762 764 766 768 772 775 778 782 786 789 792 794 796 799 803 807 810 811 810 810 812 813 814 814 814 814 815 816 816 817 817 818 818 818 818 818 818 817 817 819 820 820 819 818 818 817 816 815 813 812 810 809 809 808 806 805 804 804 804 803 801 798 796 795 794 794
716 722 726 729 732 735 738 743 746 747 748 749 750 750 751 753 754 755 757 758 760 761 764 768 773 776 779 783 787 790 792 794 796 800 804 807 808 808 808 809 810 811 812 812 813 813 814 814 815 815 815 815 816 816 816 816 816 816 817 818 818 817 816 815 815 813 812 811 809 808 807 806 805 804 803 802 802 801 800 799 796 794 793 791 791
712 718 721 724 728 732 736 740 743 743 744 743 744 745 747 750 752 752 753 754 756 758 761 766 771 773 776 780 784 787 789 791 793 797 801 804 806 806 806 807 807 808 809 810 811 812 812 812 813 813 813 813 814 814 814 814 814 814 815 815 815 814 813 813 812 811 810 808 807 806 805 804 803 802 801 800 799 798 797 796 794 792 791 789 787
709 713 716 720 725 729 733 736 738 739 740 740 740 742 745 747 748 750 750 751 754 757 759 764 769 771 773 776 780 783 786 788 790 794 798 801 803 804 805 805 806 806 806 807 808 810 810 811 811 811 811 811 812 811 811 811 811 811 812 812 812 812 811 810 808 807 807 805 804 804 803 801 800 800 798 797 797 796 795 794 792 790 789 786 784
705 709 713 717 722 725 729 732 733 735 736 737 739 740 743 745 747 748 749 750 754 756 758 761 766 769 772 774 778 780 783 785 787 791 795 798 800 801 803 804 804 804 804 804 805 807 808 808 809 809 809 808 809 808 808 808 808 808 808 808 808 808 807 806 805 804 804 803 802 802 801 799 798 797 796 795 795 794 793 792 790 788 787 785 782
701 706 710 715 718 722 726 729 731 732 733 735 737 739 742 744 745 747 749 752 754 756 758 761 764 768 771 773 776 778 781 782 784 788 791 794 796 798 800 801 801 801 801 801 803 804 805 805 806 806 806 806 806 806 806 806 805 805 805 804 804 804 804 803 802 802 802 801 800 798 798 797 796 795 795 794 794 793 791 790 788 787 785 783 780
698 704 708 711 715 719 723 725 728 730 731 734 737 739 742 743 744 747 749 752 754 755 758 761 763 766 769 771 774 777 779 780 782 785 788 790 792 794 796 798 799 799 799 799 800 802 803 803 803 803 804 804 804 804 804 804 803 802 802 801 800 800 800 801 800 800 799 798 797 795 795 795 794 793 793 793 792 791 790 788 787 785 783 781 779
695 701 705 709 713 717 720 723 726 728 731 734 737 739 742 743 745 747 749 751 753 755 758 760 762 764 767 769 773 775 777 778 780 782 785 787 789 792 794 795 796 797 797 797 798 800 801 801 801 802 803 803 803 802 802 802 801 800 800 799 799 798 798 798 797 797 796 795 794 793 793 793 792 791 791 791 790 789 788 786 785 783 781 778 776
692 698 702 707 711 714 717 721 723 726 729 732 735 738 740 742 744 746 749 751 753 754 757 759 761 763 765 767 771 773 775 776 777 779 782 784 787 789 791 792 793 794 794 795 796 797 798 798 799 800 801 802 802 801 800 799 798 797 797 797 798 796 795 795 794 794 793 792 791 791 790 789 789 788 788 788 787 786 785 784 783 781 779 776 773
690 695 700 704 708 712 716 719 721 724 726 729 732 735 737 739 742 745 747 750 752 754 756 757 759 761 763 765 767 769 771 772 774 776 779 782 784 786 787 788 790 791 792 792 793 794 794 795 795 795 797 799 800 799 798 797 795 794 795 795 795 794 793 792 791 790 789 788 788 787 786 786 786 785 785 785 784 784 783 782 780 778 776 773 769
688 693 697 702 706 710 714 717 719 721 724 726 729 731 734 736 739 741 744 747 749 752 754 756 758 759 762 764 765 767 768 769 771 774 777 779 782 783 785 786 787 789 789 790 790 791 792 792 791 792 794 796 797 797 796 795 793 793 793 793 793 792 790 790 788 787 786 785 785 785 784 783 782 782 782 781 781 781 780 778 777 775 773 770 767
687 691 696 700 705 709 712 715 717 719 722 725 728 730 733 735 737 739 741 744 747 750 752 754 756 758 761 763 764 765 766 767 769 772 775 777 779 781 783 784 785 787 788 789 789 789 790 790 790 791 793 794 795 795 794 793 792 792 792 792 791 789 788 787 786 785 785 784 783 782 782 781 780 779 779 778 777 776 775 773 772 771 770 767 763
687 692 696 700 704 708 710 713 716 718 722 725 728 731 733 735 737 738 739 742 745 748 751 753 755 756 759 761 762 763 765 765 767 770 773 775 777 779 780 782 783 785 786 787 787 787 787 787 787 789 791 792 793 793 792 791 790 791 791 790 789 787 786 785 785 784 783 782 781 781 780 779 778 777 776 775 773 771 770 769 768 768 766 763 760
688 693 697 700 704 707 709 713 715 718 721 725 728 731 732 734 735 736 737 739 742 746 749 751 753 755 757 759 760 761 763 764 765 768 771 773 774 776 778 779 780 782 783 784 784 784 785 785 785 786 789 790 791 791 790 789 789 789 790 789 787 786 785 784 783 782 781 780 779 778 777 777 776 775 773 771 769 768 767 767 766 765 764 761 759
688 693 696 700 703 706 709 712 715 717 720 724 727 729 731 733 734 734 735 737 740 744 748 749 751 753 755 757 758 759 760 762 764 766 769 770 772 773 775 777 778 779 780 781 782 782 783 783 783 785 787 788 789 788 788 788 788 788 788 787 786 785 784 783 782 781 780 779 778 777 776 775 774 772 770 769 768 767 767 766 765 764 763 761 759
689 693 697 701 705 707 710 713 715 717 719 722 726 729 731 734 734 735 736 737 740 744 747 749 750 752 754 756 757 758 759 760 762 765 766 768 769 770 773 775 775 776 778 779 780 781 781 781 781 783 785 786 786 787 787 787 787 787 786 786 785 784 782 781 780 779 778 777 776 776 775 774 772 770 768 768 767 767 766 765 764 762 760 759 757
689 693 697 702 707 710 713 715 717 719 721 723 727 731 733 734 735 736 737 738 740 743 746 749 750 751 752 753 754 756 758 759 761 762 763 765 767 769 771 773 773 775 776 777 778 779 779 779 779 781 783 784 785 785 786 786 786 785 785 784 783 782 781 780 779 777 776 775 774 773 772 771 769 768 767 767 766 765 764 763 761 760 758 756 754
688 691 696 701 705 709 712 714 716 718 721 725 728 732 734 734 735 737 737 738 740 743 745 748 749 749 750 751 752 754 757 758 759 761 762 764 766 768 770 771 772 774 775 776 776 776 776 777 778 780 782 783 783 784 784 784 784 784 783 783 782 781 780 778 777 776 775 774 772 771 770 769 768 768 767 766 765 764 762 761 758 757 755 753 751
691 695 699 702 705 707 709 712 714 716 719 724 727 731 733 734 735 736 737 738 740 742 744 745 746 748 749 749 750 752 754 757 759 760 761 764 765 766 768 769 770 772 774 774 774 774 775 776 778 779 780 781 781 782 781 781 782 782 781 781 780 779 779 777 776 776 775 773 772 771 769 768 768 767 766 765 763 762 760 758 756 754 753 751 748
693 699 702 704 706 708 709 711 713 715 719 723 727 730 732 733 734 735 736 737 738 740 742 743 744 745 746 747 748 750 752 755 757 758 760 762 763 764 766 767 769 771 772 773 773 773 774 776 777 778 779 779 779 779 779 779 779 778 778 777 777 777 776 776 776 775 774 773 771 770 769 768 767 766 764 763 761 760 758 757 755 753 751 749 746
692 697 701 704 707 709 710 711 712 715 719 723 726 728 731 732 732 734 735 735 736 738 740 741 742 743 744 745 746 748 751 754 755 756 758 759 761 762 764 766 768 769 771 771 771 772 774 774 775 776 777 777 777 776 777 777 776 775 775 775 775 774 774 774 774 774 773 771 770 769 768 767 766 764 763 761 759 758 757 755 753 752 750 747 745
691 696 699 703 707 710 711 711 713 716 720 722 724 726 728 730 730 732 733 734 735 737 739 740 741 742 742 743 744 747 750 752 753 755 756 757 759 760 762 764 766 767 768 769 770 771 772 772 773 774 774 774 774 774 774 773 773 772 773 772 772 773 772 772 771 771 771 770 769 768 767 766 764 763 761 759 758 756 755 754 752 750 748 746 743
691 695 699 702 706 709 710 712 714 717 720 722 724 726 728 729 730 731 733 734 736 737 738 740 741 742 742 742 743 746 749 750 752 753 755 756 758 759 761 763 764 764 766 767 768 769 769 769 770 770 771 771 770 769 769 769 769 770 771 771 771 770 770 770 769 769 769 769 768 767 766 764 763 761 760 758 757 755 754 752 750 748 746 743 741
692 696 699 702 706 708 710 712 715 718 720 722 725 726 728 730 731 732 733 735 736 738 739 740 742 743 743 743 744 746 748 749 750 752 753 755 757 758 760 761 762 763 765 766 767 767 767 767 767 767 768 767 766 766 766 766 767 768 768 768 769 768 768 768 768 768 768 768 767 765 764 763 762 760 759 757 756 754 752 750 748 746 744 741 739
692 695 699 702 705 707 710 712 715 718 720 722 724 725 727 729 731 732 733 734 736 738 739 740 741 742 743 743 745 746 748 749 750 752 753 754 756 757 759 760 761 762 764 765 766 766 765 765 765 765 765 765 764 765 766 766 767 767 766 765 766 768 768 768 767 768 768 767 765 764 763 761 760 759 757 756 755 753 751 749 747 745 742 740 738
692 695 698 701 704 706 708 711 714 717 719 721 723 724 726 728 729 731 732 734 736 737 738 739 740 741 742 744 745 747 748 749 751 751 752 754 755 756 758 759 760 762 763 764 766 765 765 765 765 764 763 763 763 765 765 765 766 766 764 764 767 768 768 767 767 767 766 765 764 763 761 760 759 758 756 755 753 752 750 747 745 743 741 739 736
692 695 698 700 702 704 706 709 712 715 717 719 721 722 723 724 726 728 731 733 735 736 736 737 738 739 741 743 744 746 748 749 750 751 752 753 754 756 757 758 759 761 762 764 765 764 763 764 764 763 762 762 763 764 764 765 765 763 763 765 767 768 767 767 766 765 764 763 762 761 760 759 758 757 756 754 752 751 749 746 744 742 740 738 735
693 695 697 699 700 703 706 708 711 713 715 717 718 719 721 722 723 726 728 730 731 733 735 736 737 738 740 741 743 745 747 748 749 750 751 752 754 755 756 758 759 761 762 763 764 763 762 762 762 761 761 763 764 765 765 765 764 762 762 764 766 767 766 766 765 764 763 763 762 760 759 759 758 756 755 753 751 750 747 745 743 741 740 738 735
694 697 698 699 700 702 704 706 708 711 714 715 716 717 718 720 721 723 725 727 728 731 734 735 736 737 739 741 742 744 746 748 749 750 751 752 753 754 756 757 758 760 761 761 762 762 761 760 761 761 762 763 764 765 765 764 763 762 762 764 766 767 766 765 764 763 763 762 761 760 759 758 756 755 754 752 750 749 746 744 743 741 739 737 735
694 696 697 699 700 701 703 706 708 710 713 714 714 716 717 719 720 722 723 725 727 730 733 734 735 737 739 741 743 745 746 748 749 750 752 753 753 754 756 756 757 758 759 759 759 760 760 760 761 762 763 763 763 764 763 762 761 760 762 764 765 766 766 764 763 763 762 762 760 759 758 757 755 754 753 751 749 748 746 744 742 740 738 736 733
693 694 696 698 700 702 705 706 708 710 712 713 714 715 716 718 720 721 722 724 727 730 732 734 736 738 740 741 743 745 746 748 750 751 751 752 753 753 755 755 755 755 756 757 758 759 759 760 761 762 762 762 763 762 761 760 760 760 760 762 764 764 764 763 762 762 761 760 759 758 757 756 754 753 752 750 749 747 745 743 741 739 736 734 732
693 695 697 699 700 702 705 706 708 710 711 712 713 715 716 718 719 720 721 724 727 729 731 733 735 737 739 740 742 744 746 748 749 750 751 752 752 753 753 753 753 753 754 755 757 758 758 759 760 760 761 761 761 761 760 760 760 760 761 762 763 763 761 761 760 760 759 759 758 757 756 755 754 753 751 750 748 746 744 743 740 738 736 733 731
695 697 699 699 701 702 704 706 708 709 710 711 713 714 716 717 718 719 721 724 727 728 729 731 732 734 737 739 740 742 744 746 746 748 749 751 751 752 752 751 751 752 753 755 756 756 757 758 758 759 759 759 760 760 760 759 759 760 761 762 762 761 760 759 759 758 758 758 757 756 755 754 753 752 751 749 747 746 744 741 739 737 735 733 730
696 698 700 700 702 703 704 705 707 708 709 711 712 714 715 717 718 719 721 723 725 726 727 728 731 733 735 737 738 740 742 742 743 745 746 748 749 750 750 750 750 751 752 753 754 755 756 756 757 757 757 758 758 758 758 758 758 759 760 760 760 759 758 758 757 757 757 757 756 755 754 754 753 751 750 748 747 745 743 741 738 736 734 732 730
697 699 700 701 702 703 703 705 706 707 709 711 712 714 716 717 719 721 722 723 724 725 725 727 731 733 735 736 737 739 740 740 741 742 743 744 746 747 748 749 749 750 751 752 753 754 754 755 756 756 755 756 756 756 756 757 758 758 759 758 758 758 757 756 756 756 756 756 755 755 754 753 752 751 749 747 746 744 742 740 738 736 734 732 730
697 699 700 701 702 703 704 706 707 709 710 712 713 715 717 718 720 722 723 724 724 724 725 728 731 733 735 736 737 738 739 739 739 740 741 743 744 745 746 747 748 749 750 751 751 752 753 753 753 753 753 753 754 754 755 756 757 757 757 757 756 756 756 756 755 755 755 755 754 754 753 752 751 750 748 746 745 744 742 740 738 736 734 732 730
697 699 701 701 703 704 705 706 708 710 711 713 715 716 717 719 720 721 722 723 724 725 726 729 731 733 734 735 736 737 738 738 738 738 739 741 742 742 744 745 746 748 749 749 750 751 751 751 751 751 751 751 752 753 755 755 756 756 756 755 755 755 755 755 755 755 755 754 754 753 752 751 750 749 747 746 745 743 741 739 738 736 734 732 730
698 700 701 702 703 705 706 707 709 711 712 713 715 717 718 719 719 720 721 723 724 725 726 728 730 732 733 733 734 735 736 736 736 736 737 739 740 741 742 743 744 746 747 748 749 750 750 750 750 751 750 750 751 753 754 754 754 755 755 754 754 754 754 754 754 754 754 754 753 753 752 750 749 748 747 746 745 743 741 739 738 736 734 732 730
699 700 701 703 704 705 707 709 710 711 712 713 714 715 717 718 718 719 721 722 723 724 725 726 728 729 730 731 732 733 733 734 734 735 736 737 738 739 740 741 743 744 746 746 747 748 749 749 750 750 750 750 751 752 753 753 753 754 753 753 754 754 754 754 754 754 754 753 753 752 751 750 749 748 747 745 744 742 741 739 738 736 734 732 730
701 701 702 704 705 707 708 709 710 710 711 712 713 714 715 716 718 719 720 721 722 723 724 724 726 726 727 729 730 731 731 732 733 733 735 736 737 738 739 740 741 743 744 745 745 746 747 748 749 749 749 749 750 751 751 752 752 752 752 753 753 753 752 752 753 753 753 753 752 751 751 750 748 747 746 745 744 742 741 739 738 736 735 732 730
702 703 704 705 706 707 708 708 709 710 710 711 712 713 714 715 717 718 719 720 721 722 722 723 724 725 726 727 728 728 729 730 731 732 733 733 734 736 737 738 740 740 741 742 744 745 746 747 748 748 748 748 749 750 750 751 751 751 751 751 751 751 751 751 752 752 751 751 751 750 750 749 748 747 746 745 743 742 740 739 738 736 735 732 730
702 703 704 705 706 707 707 708 709 709 709 710 711 712 713 714 715 716 717 718 719 720 720 721 722 723 724 725 725 726 727 727 728 730 731 731 732 734 735 737 738 739 739 739 741 743 745 746 746 746 747 747 748 749 749 749 750 750 750 749 749 750 750 750 750 750 750 749 750 750 749 748 747 746 745 744 743 741 740 739 738 737 735 732 730
702 702 703 704 705 705 706 707 708 708 708 709 710 711 712 713 714 715 716 716 717 718 718 719 719 720 721 721 722 723 724 725 726 727 728 729 731 733 734 736 737 738 738 739 740 742 744 745 745 745 746 746 747 747 748 748 749 749 748 747 748 749 749 749 749 748 748 748 748 748 748 747 747 746 745 743 742 741 740 739 738 737 734 732 730
702 702 703 703 703 704 705 705 706 707 708 708 709 710 712 712 712 713 714 714 714 714 715 716 717 717 718 718 719 720 722 723 725 726 726 727 729 731 733 734 735 736 738 739 740 741 742 743 744 744 744 745 745 746 747 747 747 746 746 747 748 748 748 748 748 747 747 747 747 747 747 747 746 745 744 743 742 741 740 739 738 736 734 732 730
Wind_Speed
28 27 27 27 27 27 27 26 25 23 22 21 20 19 19 19 17 15 16 16 15 16 17 19 21 19 18 17 17 17 17 17 16 14 14 14 14 13 12 12 11 11 11 11 12 12 11 12 12 13 12 12 11 10 10 11 11 11 10 10 11 10 9 9 9 10 12 12 12 13 13 14 15 14 14 14 14 14 15 16 17 17 18 18 19
29 27 27 27 27 27 27 27 26 24 23 23 23 22 22 23 23 22 22 21 21 23 25 26 26 24 23 22 21 19 18 18 16 14 14 14 14 14 13 13 12 12 12 12 13 13 12 13 14 13 12 12 11 11 11 12 12 10 9 9 11 10 9 10 11 12 12 12 12 13 13 14 15 15 14 15 16 16 16 17 17 17 18 19 20
28 27 27 26 27 27 27 27 27 26 26 27 26 25 26 30 31 30 28 26 28 31 30 29 28 26 26 26 24 20 18 18 17 15 14 15 15 14 14 13 13 13 13 13 13 13 14 15 14 13 12 11 12 12 13 13 11 10 10 11 12 12 11 11 12 13 14 14 14 14 13 14 15 15 15 16 17 17 18 19 18 17 17 18 20
28 28 27 26 26 27 28 28 29 30 30 30 30 30 34 39 39 36 34 33 36 36 33 31 30 29 29 28 25 22 20 18 16 16 16 17 17 16 15 14 14 14 14 14 14 14 14 15 14 13 12 12 13 13 13 12 11 10 12 13 12 11 11 11 13 15 16 17 17 14 14 16 17 16 16 17 17 18 20 20 18 17 18 19 19
30 30 29 28 28 29 30 31 32 34 33 32 32 34 40 44 41 39 39 39 40 39 35 33 32 31 31 29 27 26 23 20 17 16 17 18 17 16 15 15 15 15 14 15 15 14 14 14 14 13 12 13 14 14 13 13 11 11 12 12 10 11 13 14 15 17 18 20 18 16 17 18 18 17 17 17 18 19 19 20 20 19 19 19 19
31 31 30 30 30 31 32 32 34 35 33 33 35 36 41 44 43 42 44 44 42 39 35 35 34 33 33 31 29 27 23 19 18 17 17 18 17 15 15 15 16 15 15 15 15 15 14 15 15 14 12 13 14 15 15 14 12 11 12 11 11 12 14 15 15 16 18 18 17 18 20 19 17 16 16 16 18 19 20 20 20 19 19 18 18
32 31 29 30 32 32 33 34 35 35 34 36 37 37 41 46 46 47 48 46 43 39 36 36 36 35 34 32 31 29 25 20 19 18 18 19 18 16 15 16 16 16 15 15 14 15 15 16 16 15 13 14 15 16 16 15 13 13 14 14 14 14 13 12 14 15 16 16 16 18 19 17 16 16 17 16 18 19 20 20 19 19 19 18 18
33 32 30 31 33 33 33 34 34 35 36 37 38 41 46 49 49 49 48 47 44 41 39 40 38 36 34 32 31 29 26 22 19 18 19 20 19 17 16 17 17 16 16 15 15 15 16 16 16 15 13 13 14 14 15 14 13 15 16 16 17 16 15 16 16 16 15 16 17 18 18 17 16 16 16 16 17 18 19 19 19 20 20 19 19
32 31 30 32 32 32 32 31 31 34 37 39 41 47 52 52 50 50 49 48 46 43 42 41 39 36 33 29 27 25 22 20 19 19 20 20 20 18 18 18 17 16 17 16 16 16 17 16 14 14 14 15 16 16 15 13 13 13 15 17 19 18 18 19 18 17 16 16 17 18 18 17 17 15 15 15 17 18 20 20 20 20 20 20 20
30 31 32 32 31 31 31 30 31 33 37 44 47 49 52 52 51 51 50 49 47 44 42 39 34 33 31 26 24 22 20 19 19 20 21 21 20 18 18 19 18 18 17 17 17 17 17 16 14 13 15 17 18 19 18 17 17 16 16 18 21 21 20 20 18 17 17 17 17 18 17 18 18 17 16 17 19 21 21 21 20 20 19 20 19
28 29 30 29 28 30 32 31 30 33 41 48 49 48 50 52 52 52 51 49 46 42 40 36 28 24 25 23 22 21 20 19 20 21 23 24 22 19 18 19 19 19 18 17 17 17 16 14 12 13 16 18 17 17 18 18 17 17 17 19 21 22 22 22 20 19 18 18 19 19 18 19 20 19 18 19 20 20 20 19 19 19 18 17 16
28 26 25 25 28 31 31 29 29 35 44 50 50 49 50 50 50 47 42 41 41 37 36 36 28 20 19 19 20 20 19 20 22 23 24 26 26 22 19 18 18 19 19 18 17 17 16 15 12 12 15 17 16 15 16 16 16 17 17 18 20 22 23 23 23 21 21 20 20 21 22 21 21 20 18 18 18 19 19 18 18 18 18 17 17
28 28 28 29 31 31 30 30 30 35 42 46 46 46 46 47 43 33 24 25 27 26 28 29 23 18 16 17 18 19 19 21 24 25 25 26 26 24 21 18 18 19 19 18 18 18 17 16 15 13 13 13 13 12 12 13 15 16 16 16 18 21 24 26 26 26 25 23 22 23 23 20 20 19 18 18 18 18 19 19 18 18 19 19 20
28 29 30 31 31 30 31 32 32 32 34 35 35 34 36 38 34 23 15 15 15 15 17 17 16 16 16 15 17 17 18 20 24 25 24 24 24 26 24 20 19 18 16 16 19 18 17 16 14 14 12 12 12 10 10 11 13 14 14 16 18 20 23 27 29 27 27 27 26 24 21 17 17 18 17 16 17 18 19 19 19 19 21 22 23
28 28 29 29 29 29 29 30 29 28 27 27 27 26 26 26 24 19 16 14 12 12 13 13 13 14 14 14 15 16 17 20 22 22 22 22 24 26 24 19 19 19 18 19 19 16 14 13 11 10 10 10 11 11 11 12 13 13 14 17 19 20 22 25 26 24 23 24 25 23 20 17 16 16 16 17 18 18 18 19 20 22 23 23 24
28 28 27 27 27 26 27 27 26 24 23 23 24 25 23 20 19 18 17 15 13 12 12 12 13 13 14 15 16 16 17 20 21 22 21 21 23 25 22 19 18 17 17 17 16 13 13 13 12 13 14 14 15 15 13 13 13 12 14 17 19 21 22 22 22 21 21 21 21 21 21 20 19 20 21 21 20 19 17 18 20 21 21 22 22
28 27 27 27 26 24 25 24 23 22 22 22 23 23 22 20 19 18 17 16 14 12 12 13 13 14 15 17 18 18 18 21 22 22 21 21 23 24 22 18 16 15 13 13 15 16 17 16 14 14 15 16 18 18 14 13 13 14 16 18 18 19 20 19 20 21 20 20 20 21 20 20 20 21 22 20 19 19 18 17 18 19 21 19 18
29 29 28 27 26 26 25 24 23 23 22 22 22 21 20 20 20 19 16 16 14 12 12 12 12 13 15 16 18 18 18 19 21 20 20 21 22 23 20 16 16 16 13 14 17 19 16 14 12 13 14 16 18 16 13 13 14 15 15 16 17 19 19 18 17 16 15 14 15 15 16 18 20 20 20 19 19 18 19 21 21 20 19 18 18
27 27 25 24 25 27 26 23 23 23 21 21 20 19 18 19 19 17 15 14 14 13 13 12 12 13 14 14 16 17 17 17 18 19 20 22 23 21 18 15 14 14 13 14 17 16 13 11 12 14 15 16 16 14 13 13 14 14 14 16 18 17 15 13 12 12 12 13 13 14 15 16 18 19 19 20 20 20 23 26 26 22 20 20 22
23 23 23 24 26 27 24 22 22 21 20 19 17 16 16 16 16 15 14 14 14 14 14 13 12 13 13 12 13 15 15 15 16 17 19 22 24 21 17 15 15 14 14 13 12 11 11 10 10 11 12 14 15 14 13 13 14 14 13 15 17 16 14 12 12 12 13 14 14 15 15 15 16 17 18 19 20 21 21 23 23 22 21 22 23
23 23 23 23 25 24 23 22 21 19 18 18 17 17 18 17 17 17 15 14 15 14 14 13 13 13 12 12 12 13 13 14 16 19 19 20 21 22 18 16 16 14 11 9 8 9 10 11 10 11 12 13 14 13 12 13 15 15 13 14 17 17 16 15 13 13 14 13 13 14 15 16 16 17 18 19 19 18 17 17 18 19 19 21 22
23 23 22 22 22 22 23 22 20 19 19 18 18 19 19 17 17 16 14 13 13 12 12 12 12 12 11 11 11 10 10 12 15 17 18 18 21 24 21 15 12 10 7 7 10 11 10 12 14 14 13 12 12 12 12 14 15 14 14 16 17 16 16 14 12 11 12 12 13 15 15 16 17 17 18 18 17 16 15 15 17 18 20 22 22
23 22 21 20 20 21 22 21 19 20 20 20 20 20 19 17 15 13 13 12 11 11 10 11 11 12 11 11 11 10 10 11 13 15 18 19 21 23 23 18 13 10 8 8 10 10 9 11 15 15 13 11 11 11 12 13 14 14 14 13 13 13 13 12 10 11 11 12 14 15 15 16 17 17 17 16 15 15 15 17 20 21 21 21 21
23 22 21 21 21 20 19 19 18 18 19 20 20 18 17 15 13 13 13 13 11 12 11 11 12 12 12 12 12 11 10 11 14 18 19 18 18 20 22 19 14 10 9 8 9 11 11 12 13 13 12 10 11 11 11 11 11 11 11 11 12 12 11 9 10 12 12 13 13 15 15 16 15 15 15 14 15 16 18 19 19 19 19 19 20
23 23 23 23 23 22 22 21 19 19 19 19 17 16 15 14 13 14 14 12 12 12 12 12 12 11 11 12 12 12 12 12 14 17 17 16 17 18 18 15 12 11 11 10 10 11 13 14 13 12 10 10 10 10 8 8 7 8 10 12 12 11 10 10 11 11 12 12 12 14 14 13 13 14 14 15 17 17 18 17 17 17 18 19 20
20 21 22 22 23 25 25 23 20 19 19 18 15 14 15 14 13 14 13 12 12 12 12 13 13 12 12 12 11 12 13 13 13 15 16 16 17 16 14 12 12 14 14 12 11 12 12 13 13 11 9 9 8 7 6 7 8 9 10 10 9 9 10 10 10 10 10 12 12 13 13 13 14 15 16 16 16 16 15 16 16 17 17 17 18
19 19 21 22 22 23 23 22 20 18 18 18 17 16 15 14 13 12 12 13 13 13 13 13 13 12 12 12 11 10 11 12 13 14 15 16 15 15 14 12 15 17 15 12 12 11 10 11 10 8 8 7 7 7 9 11 11 9 8 8 9 9 9 10 10 10 11 12 12 12 13 14 15 16 15 15 14 14 14 15 16 17 17 17 18
22 21 21 21 20 19 19 20 19 19 19 19 19 17 16 14 14 13 12 13 13 13 13 12 12 12 12 11 11 10 10 11 12 13 14 14 14 14 14 14 17 17 14 12 12 10 10 10 9 7 7 7 9 10 11 13 13 10 8 9 10 10 12 12 12 12 11 11 11 12 14 14 14 14 14 14 14 14 14 14 16 17 17 17 17
23 22 21 20 19 18 18 18 18 19 19 15 13 14 14 12 12 12 11 10 9 9 10 10 9 10 10 10 10 10 10 11 12 13 13 13 13 15 15 15 17 16 13 13 13 11 10 9 8 8 9 9 10 11 13 14 14 11 9 8 8 11 12 12 12 11 10 10 11 13 14 13 13 13 13 13 14 13 14 15 16 16 17 16 16
21 21 20 19 19 18 18 18 18 20 18 13 11 13 13 10 10 11 10 9 8 7 7 6 5 4 2 4 8 10 9 11 13 14 14 13 13 15 16 16 16 14 12 13 10 8 8 8 8 8 9 9 11 11 11 10 9 9 10 10 11 11 12 12 11 9 8 10 12 13 13 12 12 12 13 13 14 14 15 15 16 16 16 15 15
19 19 18 19 20 19 19 19 19 19 18 16 13 13 12 11 11 11 10 9 9 8 8 7 6 4 6 7 8 8 7 9 12 13 14 16 16 17 17 16 13 11 10 9 7 7 8 9 9 8 8 10 11 11 11 10 10 10 11 12 12 12 12 10 8 7 9 12 13 12 11 11 12 12 13 13 14 15 15 15 15 15 15 15 16
19 19 18 20 21 21 20 20 19 18 18 18 17 15 13 11 9 8 8 9 9 9 11 11 10 7 6 6 8 8 8 9 11 12 16 19 20 18 16 13 11 10 8 6 5 7 8 9 9 8 9 11 11 10 10 10 10 11 13 12 12 11 10 7 6 8 11 12 11 11 11 11 11 12 13 13 14 14 14 15 15 15 15 15 16
19 20 21 22 21 21 20 21 20 18 18 18 17 16 14 12 10 8 7 8 9 9 10 11 12 10 7 6 7 7 8 9 10 12 17 20 19 16 14 11 10 9 7 5 5 7 8 10 12 11 10 11 11 10 9 9 10 12 12 10 11 12 10 8 8 10 11 10 10 10 11 10 11 12 13 13 13 14 14 15 15 15 15 16 16
19 21 22 22 21 20 19 19 18 17 17 17 16 16 15 14 13 12 10 8 8 9 9 10 11 11 10 10 10 9 7 7 8 12 16 17 16 14 11 10 8 7 7 7 6 7 8 12 14 12 10 10 11 10 9 10 12 14 11 9 10 12 10 9 10 10 10 9 10 10 10 10 11 12 13 13 13 14 14 14 14 15 15 16 17
19 20 20 20 20 19 18 18 17 16 16 16 15 15 14 13 13 14 13 11 11 10 9 9 10 10 10 11 11 9 8 8 10 13 14 15 14 12 11 9 8 7 8 9 9 9 10 11 12 10 8 9 9 9 10 11 13 13 11 10 11 11 11 11 11 9 9 9 10 10 10 10 11 12 12 13 13 14 14 14 14 15 16 16 17
18 19 19 19 18 17 17 16 16 15 15 15 14 13 12 10 11 11 11 11 11 12 11 10 11 10 9 9 10 10 10 12 13 14 14 13 13 12 10 8 8 8 9 10 9 9 10 10 9 8 7 8 8 9 11 13 12 10 9 11 12 12 12 11 10 8 8 9 10 10 10 10 11 11 12 13 13 13 14 14 15 15 16 16 17
19 19 19 17 16 15 15 14 15 15 14 13 12 11 9 7 8 9 9 10 10 12 11 11 13 12 11 12 13 14 14 15 15 15 14 14 14 12 8 7 8 9 10 11 10 8 8 7 8 8 8 8 9 10 12 13 12 9 8 11 12 12 12 11 10 9 9 10 10 10 9 10 10 11 11 13 13 14 14 14 15 16 16 17 17
16 17 17 16 15 15 14 13 13 13 11 9 8 7 6 6 6 8 9 10 11 12 11 11 12 12 12 15 16 16 17 17 16 15 15 16 15 12 9 9 10 9 9 8 8 8 8 7 7 8 8 8 10 11 11 11 11 10 10 11 11 11 11 11 11 11 10 10 10 9 9 10 10 10 12 13 13 14 14 15 15 16 16 16 17
15 17 18 17 16 15 14 13 12 11 9 7 7 7 8 8 9 9 10 11 11 12 12 12 12 12 15 18 20 19 18 16 15 14 14 14 13 11 10 10 10 8 7 7 7 7 8 8 8 8 9 9 10 11 11 10 10 11 12 12 12 12 11 10 9 9 8 8 9 8 8 10 10 10 12 13 13 14 15 15 16 16 15 16 17
14 15 15 15 14 14 14 14 13 11 9 9 9 9 10 10 10 10 10 10 11 11 11 11 12 15 18 19 20 20 17 14 13 13 13 12 12 11 10 10 9 8 8 8 7 8 8 9 9 10 10 10 10 10 10 10 11 11 12 11 11 11 10 9 8 8 8 8 8 8 8 9 10 10 12 12 12 14 15 15 15 15 15 16 16
13 13 13 13 13 14 14 13 12 11 11 11 11 10 11 10 9 9 9 9 9 9 9 7 10 16 17 16 16 17 15 12 11 12 11 10 10 10 10 10 9 8 9 9 9 9 9 9 9 9 9 9 10 10 10 11 11 10 10 11 10 10 9 9 8 7 7 7 8 8 8 9 10 11 12 12 13 14 15 15 15 15 15 15 16
14 14 14 14 14 13 13 12 12 11 11 11 10 10 9 8 8 7 6 6 7 7 7 6 11 14 14 12 11 15 15 10 8 10 10 10 10 10 10 10 10 9 9 9 9 9 9 9 10 10 10 10 10 11 11 10 9 9 10 10 9 9 9 8 7 6 7 7 8 8 8 9 10 11 12 12 13 13 14 14 14 15 15 15 15
14 14 14 13 13 12 12 12 12 11 10 10 8 8 8 7 7 6 5 5 5 5 6 7 10 10 11 11 12 16 15 9 7 8 9 10 11 11 11 11 10 10 10 10 9 9 10 11 12 12 11 10 11 11 9 8 8 9 9 9 8 8 8 7 7 6 6 7 7 7 8 9 10 11 11 11 12 13 14 14 14 14 15 15 15
14 14 13 12 12 11 11 11 11 10 9 9 8 8 8 7 7 6 6 7 6 5 6 8 8 9 11 13 16 17 14 10 8 9 9 11 12 11 11 11 10 9 10 10 9 10 11 12 12 11 11 11 9 8 8 8 8 8 8 8 8 8 7 8 7 6 6 6 7 8 9 9 9 10 11 11 12 13 14 13 13 14 14 14 15
12 12 12 12 12 11 10 9 9 9 9 8 8 8 8 7 8 8 8 8 8 7 8 8 8 9 11 14 15 15 13 11 9 9 10 11 11 10 10 10 8 6 7 9 9 9 10 11 10 10 9 7 6 7 8 8 8 8 8 7 7 7 6 6 5 5 5 6 7 8 8 9 9 10 10 11 12 12 13 13 13 14 14 14 14
11 11 11 10 10 10 9 9 8 8 8 8 8 9 9 8 8 9 8 8 8 8 7 8 9 9 10 11 12 12 11 10 9 9 9 10 10 10 11 10 9 7 8 9 10 9 9 10 10 8 7 6 7 7 7 7 7 8 8 7 7 7 5 4 4 4 5 6 7 8 8 9 9 10 10 11 11 12 12 13 13 13 13 14 14
8 8 8 8 7 8 8 8 7 7 7 8 8 8 9 8 8 8 8 7 7 7 7 7 7 8 8 8 8 9 9 9 8 9 9 9 10 11 11 10 10 10 9 9 9 9 9 10 9 8 7 7 7 7 7 7 7 7 7 7 7 6 6 6 4 3 5 5 6 7 8 9 9 10 10 10 11 11 12 12 12 13 13 13 13
6 7 7 7 7 7 6 6 7 7 8 8 8 8 8 8 8 8 8 7 8 8 8 7 7 7 7 7 7 8 9 8 8 9 9 9 10 10 11 11 11 11 10 9 9 10 10 9 9 8 8 8 8 8 7 7 7 7 6 7 8 9 11 10 7 6 7 7 6 7 8 9 9 9 9 10 11 11 11 11 12 12 13 13 12
7 7 7 6 6 7 6 7 8 8 7 8 8 8 8 8 8 8 8 8 8 7 7 7 7 7 7 7 8 8 9 9 9 9 10 11 10 9 10 10 11 12 12 11 10 10 10 9 9 8 8 9 9 8 8 8 8 7 7 8 11 11 12 12 10 10 11 9 7 7 9 9 9 9 9 9 10 10 10 10 11 12 13 12 12
5 6 7 7 8 8 8 8 8 8 8 8 8 7 7 8 8 8 8 8 8 9 9 8 8 8 8 9 9 9 9 10 10 10 11 11 10 9 10 11 11 12 12 11 11 11 11 10 10 9 9 9 9 9 8 8 8 8 9 11 12 11 10 10 10 10 9 8 7 7 8 8 8 8 9 9 9 9 10 10 11 12 12 11 11
3 4 5 5 6 6 7 7 7 7 8 8 8 7 8 8 8 8 9 9 9 9 9 7 6 7 8 8 9 9 9 10 11 11 12 12 11 11 13 13 12 11 11 11 11 12 12 11 10 10 10 10 9 9 9 8 9 11 12 11 11 10 9 8 8 8 8 8 8 7 7 9 8 8 8 8 8 8 9 10 10 12 12 10 10
Wind_Direction
198 197 197 197 196 196 196 194 193 192 190 188 188 186 182 179 177 172 165 166 176 184 190 193 194 195 199 204 210 214 212 209 210 213 219 227 232 235 237 239 242 241 240 241 247 254 252 248 249 251 253 259 261 261 262 262 260 257 257 266 274 277 278 277 279 284 289 290 290 290 290 290 288 282 273 270 270 267 263 264 265 267 269 269 270
199 197 197 197 196 196 196 194 192 190 186 186 187 182 180 179 175 176 179 184 193 201 202 198 195 195 199 201 205 209 209 208 209 211 216 224 229 233 237 239 240 240 240 239 239 243 247 246 248 249 250 256 259 259 258 257 259 262 265 268 273 277 278 276 277 279 284 288 287 286 287 285 283 282 282 282 281 278 272 270 271 272 271 271 272
199 198 197 197 196 194 194 193 191 189 186 185 183 177 175 178 180 187 194 200 206 209 207 202 196 197 201 201 201 204 207 208 209 210 214 222 226 228 232 235 235 235 235 237 236 236 240 243 246 246 248 250 250 249 248 250 259 271 274 273 277 283 285 280 278 279 284 287 284 283 286 287 285 284 286 287 287 286 284 280 276 272 272 273 272
196 198 198 198 197 195 194 192 190 190 188 185 181 176 176 181 187 195 200 208 213 211 208 205 200 199 202 200 196 198 202 206 209 211 216 222 224 226 229 231 234 235 234 236 237 236 237 243 246 246 246 249 250 246 241 244 254 260 265 270 273 279 287 293 294 290 286 283 280 280 284 286 286 286 288 289 290 291 289 287 282 275 275 276 275
194 196 196 198 199 197 195 192 189 189 190 188 183 179 180 185 191 196 202 210 214 210 206 206 203 201 202 200 196 197 200 202 205 213 222 224 222 224 229 232 233 235 236 238 239 239 240 245 250 249 248 251 255 255 252 254 258 260 267 270 263 265 275 284 290 286 277 277 281 285 285 283 283 285 287 289 290 292 292 291 289 285 281 280 278
193 194 194 196 198 198 197 193 189 188 190 190 183 179 183 187 192 199 206 212 212 209 209 209 206 204 204 203 202 200 198 197 201 212 226 228 223 222 228 234 236 234 235 238 240 242 244 249 254 254 252 256 261 265 266 267 269 273 280 282 278 281 281 277 278 276 271 275 281 280 277 277 281 285 287 289 290 290 292 292 292 290 287 282 278
195 193 192 193 194 196 198 196 191 187 188 186 181 180 185 189 195 203 209 213 211 210 212 213 210 209 208 208 207 203 200 198 199 208 224 230 226 221 226 233 238 237 235 237 239 242 246 249 253 253 254 260 266 271 275 276 277 278 280 281 283 285 282 276 274 274 276 281 282 277 274 278 285 288 291 294 292 287 288 290 293 293 291 286 283
194 190 189 192 194 196 198 197 191 185 183 182 181 186 190 194 201 208 211 213 212 213 216 217 215 213 211 209 208 206 202 198 197 204 218 227 226 222 222 227 233 237 237 239 240 244 248 251 254 258 259 262 267 273 277 274 272 274 273 274 280 283 282 282 280 280 284 288 285 281 282 285 285 286 291 292 287 284 288 292 294 295 293 291 290
190 188 189 191 193 193 194 194 188 181 179 180 186 193 197 201 208 212 212 213 213 215 218 218 216 213 209 206 204 202 198 195 196 203 214 223 225 223 220 221 227 232 237 242 243 246 252 254 257 260 261 263 267 272 276 273 271 274 274 276 280 279 278 279 279 282 287 287 285 284 285 285 283 284 288 287 284 286 291 294 294 293 294 294 291
184 187 190 192 192 189 185 184 181 179 181 186 191 197 200 204 209 212 213 213 212 213 212 212 213 209 204 200 196 196 196 195 197 203 212 221 224 223 221 222 224 228 233 239 244 249 252 253 258 263 266 270 273 274 276 277 275 274 273 276 277 275 275 274 272 277 284 283 281 282 282 282 283 285 287 287 287 289 292 295 295 296 297 295 292
183 185 188 189 184 177 174 173 175 182 188 191 194 198 201 204 208 212 215 213 210 209 207 206 205 199 196 194 190 191 195 195 198 204 211 219 222 222 223 225 226 228 230 235 244 250 252 255 264 268 268 272 274 272 272 272 272 271 271 272 272 271 273 271 268 272 278 278 278 279 278 279 283 285 285 285 288 291 295 297 296 296 297 294 293
184 180 178 173 165 165 169 172 177 186 193 196 199 202 203 203 208 212 213 211 210 209 207 209 207 195 189 192 192 194 197 197 200 204 212 220 224 226 228 230 229 229 228 230 239 246 249 253 258 259 265 272 270 264 263 261 261 267 270 269 268 266 265 263 263 268 273 276 279 279 276 277 282 285 286 288 292 295 296 295 293 294 294 292 291
180 171 167 164 161 166 173 179 187 193 197 200 202 202 203 205 209 212 210 207 208 207 207 210 207 193 187 192 196 200 202 200 201 205 213 223 228 228 229 232 233 232 230 232 237 243 247 249 250 250 256 264 261 255 253 254 260 267 268 267 269 268 264 261 260 263 268 271 273 273 273 278 285 288 291 296 300 301 299 297 296 296 293 291 290
170 161 160 162 165 172 176 183 192 196 196 198 200 202 205 209 212 214 208 202 201 197 196 196 190 184 187 193 198 205 209 207 205 209 216 224 228 229 228 232 237 236 234 233 235 240 244 246 250 251 245 242 248 253 249 249 260 268 270 273 274 273 271 267 264 265 269 268 265 267 272 279 285 287 292 299 304 302 299 297 296 295 291 289 289
164 155 159 166 170 175 179 184 190 192 191 195 199 203 207 211 215 216 215 212 204 193 188 184 182 185 190 195 202 210 216 214 210 211 218 224 227 227 226 229 236 238 239 240 238 239 244 245 250 260 258 246 251 261 258 251 258 271 282 284 279 275 273 269 266 267 268 263 260 263 270 276 281 286 293 299 299 296 293 291 290 289 287 286 286
167 157 161 168 169 172 179 183 184 186 188 193 201 206 208 209 212 213 213 212 203 193 189 190 192 193 193 197 203 210 218 219 215 213 218 222 223 224 224 223 227 234 239 241 237 229 229 238 252 270 273 262 261 269 267 257 258 271 279 276 270 268 267 267 268 270 269 265 263 266 273 279 284 290 294 296 293 290 291 291 288 285 282 283 285
168 163 166 170 171 174 179 182 181 181 186 193 200 205 205 204 204 204 204 204 202 196 195 198 198 196 196 200 205 212 222 223 218 215 219 222 221 220 219 218 224 228 225 225 230 231 236 247 258 264 260 257 263 270 268 263 266 270 270 267 264 264 267 270 275 275 271 269 270 274 280 286 291 293 294 294 290 287 283 280 279 281 283 284 286
170 170 171 171 172 176 180 184 183 182 186 193 197 201 202 202 202 201 201 205 209 208 204 204 202 200 206 214 216 218 222 221 215 214 219 223 221 217 216 220 227 228 221 223 233 237 239 245 244 240 245 255 262 262 259 262 266 264 260 260 262 266 272 279 283 281 277 277 278 281 288 294 297 296 293 291 289 284 272 264 268 278 284 284 287
169 171 170 167 169 173 178 183 184 182 185 191 194 196 198 199 201 200 202 209 216 217 214 212 210 208 217 227 225 221 222 220 215 217 223 224 221 216 215 220 222 221 221 227 232 229 225 231 238 241 248 252 251 249 252 257 257 255 256 261 267 273 280 286 292 293 292 289 287 288 293 295 294 292 290 287 286 282 271 262 261 267 275 280 286
159 163 164 164 169 174 176 179 181 180 181 184 186 188 190 192 193 191 193 201 206 210 211 211 215 218 220 222 220 219 221 217 212 216 223 224 221 215 210 212 218 222 223 220 217 213 208 216 240 250 243 240 242 246 251 252 250 252 257 265 272 279 286 293 298 300 298 295 292 291 291 290 287 285 285 283 280 279 274 265 263 268 279 287 291
152 157 160 163 169 173 175 177 177 173 172 176 181 184 184 184 184 182 184 189 190 197 206 209 215 220 219 216 216 219 221 218 213 215 220 222 220 216 212 215 222 223 217 206 205 209 201 202 227 244 235 232 240 244 246 251 255 256 256 261 267 274 282 290 297 299 296 291 288 287 288 290 289 285 284 284 285 287 287 281 280 285 291 295 295
150 154 157 161 166 171 173 175 174 169 169 175 179 181 182 182 180 178 179 179 177 184 203 211 211 212 213 216 216 211 211 214 210 208 213 221 222 217 214 217 219 211 206 214 221 223 213 205 217 231 232 231 237 243 247 253 255 252 249 253 262 271 280 288 295 296 292 289 289 292 294 293 289 288 290 292 293 295 294 292 294 295 293 291 290
146 147 151 154 161 168 172 173 171 169 172 174 175 179 181 177 173 172 169 165 165 175 195 209 211 210 209 210 206 194 191 204 211 211 215 221 223 217 212 214 220 221 223 224 217 212 207 204 211 221 229 236 239 242 246 248 247 250 253 259 270 281 289 294 288 275 277 288 291 290 287 283 282 289 295 296 294 297 298 297 296 294 290 287 285
141 142 146 152 159 164 166 168 169 169 172 172 172 175 175 166 164 168 166 162 168 179 189 201 210 212 206 202 204 199 191 200 218 224 223 218 215 210 209 216 228 230 219 213 205 198 195 202 213 222 229 236 236 236 241 246 248 258 272 284 291 292 291 287 276 272 282 291 289 284 285 286 288 293 296 296 297 300 299 296 293 291 290 288 287
142 144 149 155 161 162 162 166 170 169 170 169 168 169 168 163 163 168 167 169 178 185 190 197 204 208 205 202 204 201 193 194 211 221 218 208 204 204 207 220 233 221 207 209 210 202 199 205 217 226 227 225 227 231 243 257 266 278 293 303 303 292 278 273 280 288 293 291 289 290 293 295 295 296 297 299 300 299 296 294 294 294 294 294 292
141 149 154 159 164 165 164 166 167 165 167 169 166 167 171 171 167 167 173 182 188 191 194 195 196 198 204 207 202 193 188 186 192 201 201 197 198 203 210 225 225 207 198 201 199 193 196 204 212 219 218 216 226 237 245 257 268 278 290 298 291 273 268 279 293 296 290 288 292 295 295 297 298 299 300 298 295 293 294 297 300 301 301 302 300
146 157 160 162 163 162 161 162 159 157 164 173 177 178 180 177 171 173 185 191 191 193 195 195 197 200 205 209 203 193 189 187 183 183 186 191 201 207 211 212 203 192 190 194 195 195 200 204 207 213 214 220 235 237 232 236 245 257 270 268 257 259 276 288 288 285 285 289 291 290 294 299 299 297 297 295 293 296 300 302 304 304 306 306 303
153 160 161 160 159 157 158 158 156 160 172 181 182 181 182 185 182 183 192 195 190 193 198 201 205 208 209 212 208 198 194 198 196 187 181 182 189 195 194 189 187 191 193 189 185 188 192 192 192 198 209 224 235 234 231 229 227 229 237 239 248 273 290 284 271 269 274 281 287 293 297 297 295 295 298 298 299 302 304 304 304 303 305 306 304
153 156 158 158 157 157 160 160 161 169 175 173 164 163 172 187 186 178 184 191 188 192 203 207 211 218 222 218 207 196 193 199 200 193 188 186 183 182 183 183 189 199 198 178 168 174 183 185 191 203 214 229 241 242 238 229 225 231 244 252 268 286 292 287 280 276 276 285 296 298 295 294 296 299 300 301 303 305 305 304 302 299 300 301 301
152 153 157 159 158 158 161 163 167 173 172 158 140 143 152 162 162 159 168 184 187 191 201 203 204 215 198 159 173 186 197 204 202 197 198 200 190 181 185 192 194 194 187 177 181 203 214 219 235 240 240 249 259 261 259 255 261 275 283 287 292 291 289 289 286 280 287 298 300 295 293 296 299 300 302 305 307 307 305 303 300 297 297 299 301
152 153 158 159 158 160 162 163 167 173 174 170 162 154 148 146 147 151 162 175 184 197 213 217 203 156 99 112 152 172 181 193 200 200 200 199 190 185 190 194 189 185 184 186 208 240 251 256 262 261 257 264 274 282 284 284 289 289 284 287 294 296 295 293 286 289 300 302 296 292 294 299 300 301 305 307 306 306 305 304 303 302 300 302 304
155 157 155 153 159 166 165 162 168 174 174 175 177 171 161 158 158 162 178 191 204 216 222 222 215 186 137 137 164 165 155 165 181 187 188 188 186 186 189 187 184 191 200 206 231 254 264 267 263 255 260 273 283 287 285 284 287 286 286 292 298 298 297 300 313 314 302 293 292 295 295 297 300 303 306 306 305 306 306 306 307 307 306 306 306
159 156 151 153 166 174 166 161 170 174 171 173 176 175 174 176 174 173 184 195 204 207 203 205 211 206 189 185 190 181 169 172 180 182 183 184 185 185 185 181 183 193 194 195 234 260 270 271 264 259 266 277 279 273 272 277 277 276 283 297 300 293 292 301 311 304 290 284 289 293 293 299 305 306 307 308 307 307 308 308 308 310 311 312 311
158 154 154 160 168 168 162 163 170 172 170 169 169 172 177 175 163 156 157 163 173 177 175 180 191 197 199 201 204 204 200 193 186 181 180 180 180 180 175 166 164 174 179 191 230 258 264 266 270 273 275 277 277 280 284 283 277 279 292 304 294 288 292 298 295 289 287 291 295 295 299 307 309 307 307 309 309 309 310 309 310 314 316 315 315
156 157 159 161 161 160 162 166 167 167 167 166 165 168 172 168 160 158 159 164 166 161 156 163 174 183 193 197 200 204 202 189 179 173 171 172 173 170 161 152 154 177 197 208 227 244 247 254 269 280 277 269 273 285 287 280 281 291 301 298 289 290 296 296 289 288 296 299 297 299 304 305 304 305 306 309 311 311 311 312 315 317 317 316 317
154 158 160 160 160 159 160 160 160 159 161 163 163 161 161 167 173 172 173 177 166 147 137 145 153 155 163 172 174 174 172 169 169 167 166 171 173 166 160 165 180 198 207 208 216 233 243 253 269 278 272 261 263 270 270 271 281 294 295 289 290 294 295 293 292 295 300 297 294 297 300 299 303 308 308 311 314 312 312 316 317 316 316 317 316
159 159 161 160 155 150 147 145 145 147 151 156 158 156 158 171 183 187 194 191 165 139 130 138 139 134 138 150 155 159 161 162 165 164 163 167 171 169 176 202 212 210 210 212 220 237 247 250 257 263 263 262 263 262 264 272 283 290 286 283 282 280 282 289 294 292 291 289 288 291 296 300 305 309 310 313 315 313 316 320 318 314 317 317 314
146 149 151 148 142 139 137 134 135 139 144 147 149 157 168 173 179 191 191 172 150 136 135 142 143 139 144 153 157 159 160 158 158 161 164 169 175 180 196 219 224 224 227 228 230 240 250 251 248 249 252 258 262 265 271 284 291 291 288 285 280 269 264 270 274 270 267 273 281 289 298 303 306 312 314 313 314 317 320 320 317 317 319 319 318
117 127 134 138 143 145 145 145 146 150 156 159 161 171 177 175 181 185 171 159 158 155 152 159 164 157 154 159 162 161 160 159 161 167 173 180 188 198 213 224 229 233 237 236 230 233 245 251 249 246 247 254 264 275 286 295 295 289 286 284 279 271 260 256 261 263 262 273 288 296 301 305 308 313 314 313 317 322 321 317 317 319 320 319 321
126 130 132 137 143 147 149 153 156 159 164 164 165 172 175 177 184 183 171 170 179 176 171 178 173 156 157 168 172 169 168 174 179 178 180 189 202 212 220 230 237 231 223 227 234 235 238 243 246 245 244 246 250 259 269 277 282 283 279 272 267 266 263 260 264 270 274 284 294 296 298 306 312 314 314 314 317 319 316 314 317 320 319 320 323
136 138 138 138 140 141 145 151 154 156 158 158 161 167 170 170 175 180 180 183 186 189 193 183 148 147 166 186 191 184 183 188 189 186 187 196 208 215 220 228 235 229 219 223 233 236 240 249 254 252 250 249 251 257 266 275 281 278 269 262 258 259 262 262 262 268 277 285 291 295 302 310 313 312 311 312 314 315 316 318 320 321 322 323 325
138 139 141 143 144 144 144 143 141 142 147 153 157 159 161 166 171 175 183 191 198 207 203 146 118 142 175 196 195 190 193 200 203 201 201 203 208 214 219 223 225 224 223 229 237 238 239 244 249 253 255 256 261 270 276 276 269 259 256 259 256 252 257 263 264 267 276 280 287 298 305 307 308 307 307 310 315 318 320 321 321 323 325 325 326
142 143 145 147 146 144 141 140 141 145 149 152 153 152 155 165 169 171 183 201 213 219 196 142 121 144 176 187 189 193 201 215 221 208 203 204 207 212 217 220 224 226 226 229 237 242 241 239 242 250 258 261 267 276 274 261 255 254 254 257 255 251 257 268 270 273 280 283 292 303 304 303 307 308 308 314 320 320 319 320 322 326 328 326 327
146 147 146 144 141 139 140 145 148 147 142 139 142 150 159 166 172 182 197 202 200 198 188 169 151 156 174 184 190 196 206 221 227 217 212 213 217 223 225 222 222 225 226 229 238 250 256 254 250 253 262 264 261 257 250 246 250 251 249 250 252 251 255 261 266 277 290 291 296 302 302 304 309 310 312 319 322 318 320 323 325 326 328 327 329
152 149 145 142 143 144 145 148 147 142 142 147 155 163 172 182 190 195 198 195 192 197 200 190 176 171 175 182 190 201 212 222 226 227 224 220 221 227 227 220 215 218 229 240 248 252 255 257 256 257 261 254 232 222 230 241 247 246 245 248 249 249 253 260 267 279 291 294 297 300 302 307 312 311 315 321 320 318 322 325 325 326 327 327 329
151 149 145 146 147 146 146 148 148 150 158 170 178 180 185 193 199 201 202 202 202 207 213 210 202 196 190 188 193 204 215 221 224 228 229 227 225 225 223 220 219 219 228 242 247 243 242 251 257 255 243 225 214 218 229 238 239 237 238 240 244 251 264 269 270 280 286 289 296 298 301 307 310 308 312 317 316 317 324 324 323 327 328 325 329
143 143 143 145 148 149 150 153 158 168 179 186 190 195 198 199 201 202 205 206 203 202 206 211 211 209 206 201 201 207 215 223 231 234 232 232 232 228 221 219 220 223 231 241 245 244 244 247 249 245 231 219 216 221 229 237 238 233 232 234 235 237 238 235 244 293 297 289 295 300 300 302 305 307 314 317 316 319 324 323 324 329 327 323 329
149 146 148 152 158 166 173 176 179 190 198 198 198 202 202 199 198 198 195 192 194 198 202 206 207 212 214 213 217 225 229 232 239 243 241 241 238 227 217 217 223 230 238 242 242 246 248 243 236 233 228 220 219 223 231 237 235 228 227 228 224 225 233 239 249 270 272 271 284 296 293 295 301 306 312 315 314 316 322 324 328 330 325 322 330
170 170 176 187 192 195 197 193 194 202 207 202 200 201 200 198 201 200 196 192 194 200 209 214 214 218 223 225 229 238 242 243 245 246 246 248 244 225 211 216 229 241 250 252 246 243 243 238 231 227 223 220 222 226 229 230 229 226 225 226 228 237 251 260 262 260 259 264 281 290 288 293 300 303 306 310 312 316 323 327 329 327 322 322 331
189 198 204 208 208 205 200 194 196 204 207 203 202 201 199 201 202 199 198 204 208 207 210 218 222 225 231 235 237 241 245 248 251 250 249 250 244 224 211 217 229 239 248 252 245 237 238 239 233 225 222 222 223 225 227 227 224 218 216 222 235 254 270 275 273 268 260 256 263 277 286 293 297 300 304 310 314 321 326 326 325 324 321 322 331
181 203 208 204 203 202 199 198 201 203 203 203 203 198 197 202 208 207 207 212 216 212 211 218 232 242 251 257 258 256 253 252 253 253 253 250 239 223 219 223 225 228 235 241 240 238 241 240 230 220 219 221 220 222 225 223 216 216 222 232 249 268 279 280 281 280 266 251 248 261 280 290 294 296 302 309 318 323 322 319 318 319 321 325 331